Portsmouth, NH

12:00 PM EST on December 07, 2019 (GMT -0500)
Pease International Tradeport

Weather History for KPSM - November, 2019

Change the Weather History Date:

Saturday, November 16, 2019

  Actual Average Record
Temperature  
Mean Temperature 28 °F -  
Max Temperature 35 °F 46 °F 68 °F (2001)
Min Temperature 19 °F 30 °F 15 °F (1985)
Degree Days  
Heating Degree Days 37    
Moisture  
Dew Point -1 °F    
Average Humidity 31    
Maximum Humidity 50    
Minimum Humidity 19    
Precipitation  
Precipitation 0.00 in - - ()
Sea Level Pressure  
Sea Level Pressure 30.46 in    
Wind  
Wind Speed 11 mph ()    
Max Wind Speed 25 mph    
Max Gust Speed 31 mph    
Visibility 10.0 miles    
Events      
Averages and records for this station are not official NWS values.
T = Trace of Precipitation, MM = Missing Value Source: Averaged Metar Reports

Daily Weather History Graph

Daily Weather History Graph

Search for Another Location

Airport or City:

Astronomy

Nov. 16, 2019 Rise Set
Actual Time 6:36 AM EST 4:18 PM EST
Civil Twilight 6:06 AM EST 4:49 PM EST
Nautical Twilight 5:31 AM EST 5:23 PM EST
Astronomical Twilight 4:58 AM EST 5:57 PM EST
Moon 7:45 PM EST (11/16) 10:30 AM EST (11/16)
Length of Visible Light 10h 43m
Length of Day
9h 41m
Waning Gibbous, 82% of the Moon is Illuminated
Nov 16
Waning Gibbous
Nov 19
Last Quarter
Nov 26
New
Dec 4
First Quarter
Dec 12
Full

Hourly Weather History & Observations

Time (EST) Temp. Windchill Dew Point Humidity Pressure Visibility Wind Dir Wind Speed Gust Speed Precip Events Conditions
12:56 AM 31.8 °F 21.4 °F 15.3 °F 50% 30.23 in 10.0 mi NNW 15.0 mph - N/A   Scattered Clouds
1:56 AM 30.6 °F 18.6 °F 3.6 °F 32% 30.27 in 10.0 mi NNW 18.4 mph 26.5 mph N/A   Partly Cloudy
2:56 AM 27.9 °F 13.1 °F -0.4 °F 30% 30.31 in 10.0 mi NW 25.3 mph 31.1 mph N/A   Clear
3:56 AM 26.1 °F 13.6 °F -0.4 °F 32% 30.36 in 10.0 mi NNW 16.1 mph 21.9 mph N/A   Clear
4:56 AM 23.9 °F 10.8 °F -3.8 °F 30% 30.39 in 10.0 mi NNW 16.1 mph - N/A   Clear
5:56 AM 22.3 °F 9.7 °F -3.8 °F 32% 30.43 in 10.0 mi NNW 13.8 mph - N/A   Clear
7:56 AM 25.0 °F 18.1 °F -1.5 °F 32% 30.51 in 10.0 mi NNW 5.8 mph - N/A   Clear
8:56 AM 27.0 °F 18.0 °F -0.4 °F 31% 30.51 in 10.0 mi NNW 9.2 mph - N/A   Clear
9:56 AM 29.5 °F 19.3 °F -1.3 °F 27% 30.51 in 10.0 mi NNW 12.7 mph - N/A   Clear
10:56 AM 32.7 °F 23.4 °F -2.9 °F 22% 30.51 in 10.0 mi NW 12.7 mph - N/A   Clear
11:56 AM 34.9 °F 26.2 °F -3.3 °F 20% 30.48 in 10.0 mi NW 12.7 mph - N/A   Clear
12:56 PM 35.4 °F 27.8 °F -1.7 °F 21% 30.47 in 10.0 mi NW 10.4 mph - N/A   Clear
1:56 PM 34.9 °F 26.2 °F -4.4 °F 19% 30.46 in 10.0 mi NW 12.7 mph 23.0 mph N/A   Clear
2:56 PM 33.8 °F 25.3 °F -5.3 °F 19% 30.46 in 10.0 mi NNW 11.5 mph - N/A   Partly Cloudy
3:56 PM 31.1 °F 22.4 °F -3.3 °F 23% 30.46 in 10.0 mi NNW 10.4 mph - N/A   Partly Cloudy
4:56 PM 25.9 °F 16.6 °F -0.0 °F 33% 30.50 in 10.0 mi NNW 9.2 mph - N/A   Partly Cloudy
5:56 PM 23.9 °F 15.0 °F 0.9 °F 37% 30.52 in 10.0 mi NW 8.1 mph - N/A   Partly Cloudy
6:56 PM 23.5 °F 14.5 °F 1.0 °F 38% 30.51 in 10.0 mi NNW 8.1 mph - N/A   Partly Cloudy
7:56 PM 24.3 °F 16.3 °F 1.0 °F 37% 30.51 in 10.0 mi North 6.9 mph - N/A   Partly Cloudy
8:56 PM 25.0 °F 18.1 °F -2.9 °F 30% 30.53 in 10.0 mi North 5.8 mph - N/A   Partly Cloudy
9:56 PM 23.2 °F 16.0 °F -2.4 °F 33% 30.53 in 10.0 mi North 5.8 mph - N/A   Clear
10:56 PM 21.9 °F 14.5 °F -0.9 °F 37% 30.53 in 10.0 mi NNW 5.8 mph - N/A   Clear
11:56 PM 19.2 °F 12.5 °F 1.2 °F 46% 30.53 in 10.0 mi NW 4.6 mph - N/A   Clear